Location: Strawberry
(45.6646°N, 111.9596°W)
Time: 20:48:14
(UTC+00:00)

Explorer 11/Cluster Stage 4 - Pass Details

Date: 12 October 2022
Orbit: 466 x 1248 km, 28.8° (Epoch: 28 November)

Event Time Altitude Azimuth Distance (km) Brightness Sun altitude
Rises 17:04:27 0° 242° (WSW) 3,896 10.1 29.4°
Reaches altitude 10° 17:07:48 10° 228° (SW) 3,042 9.7 29.7°
Maximum altitude 17:13:24 22° 181° (S) 2,370 10.1 30.3°
Drops below altitude 10° 17:19:17 10° 135° (SE) 3,210 11.2 30.9°
Sets 17:22:56 0° 121° (ESE) 4,167 11.2 31.2°
